Total_Precipitation_Accumulation
1.49 1.49 1.47 1.46 1.37 1.34 1.36 1.33 1.30 1.30 1.34 1.30 1.20 1.13 1.21 1.19 1.15 1.22 1.26 1.32 1.39 1.54 1.68 1.81 1.97 2.23 2.55 2.62 2.59 2.49 2.41 2.30 2.07 1.84 1.63 1.53 1.82 1.91 1.81 1.68 1.65 1.62 1.42
1.40 1.43 1.41 1.30 1.22 1.21 1.20 1.12 1.00 0.94 0.94 1.05 1.18 1.10 1.07 1.09 1.11 1.18 1.19 1.24 1.28 1.38 1.48 1.61 1.80 2.09 2.44 2.66 2.77 2.66 2.52 2.41 2.26 2.09 1.74 1.49 1.60 1.92 2.03 1.95 1.75 1.60 1.46
1.43 1.31 1.20 1.13 1.11 1.14 1.07 0.99 0.92 0.81 0.75 0.77 0.87 0.87 0.96 1.05 1.08 1.11 1.14 1.21 1.26 1.32 1.46 1.52 1.58 1.80 2.01 2.20 2.39 2.52 2.50 2.51 2.47 2.22 1.91 1.63 1.56 1.71 1.96 1.95 1.88 1.88 1.62
1.50 1.40 1.26 1.16 1.13 1.12 1.07 1.03 0.94 0.88 0.84 0.84 0.95 0.99 0.95 0.94 0.99 1.08 1.12 1.11 1.15 1.20 1.27 1.34 1.41 1.47 1.66 1.82 1.93 2.14 2.36 2.62 2.67 2.51 2.24 1.90 1.77 1.66 1.75 1.91 1.97 1.92 1.83
1.50 1.49 1.34 1.28 1.25 1.13 1.07 1.06 1.02 1.01 0.94 0.92 0.99 1.09 1.14 1.10 1.08 1.15 1.12 1.11 1.14 1.14 1.18 1.16 1.21 1.26 1.35 1.55 1.60 1.82 2.14 2.43 2.52 2.60 2.48 2.16 1.88 1.73 1.49 1.59 1.85 2.07 2.06
1.21 1.29 1.26 1.18 1.07 1.05 1.06 1.03 0.97 0.94 0.89 0.82 0.81 0.86 0.95 1.01 1.31 1.26 1.06 1.00 1.05 1.11 1.15 1.13 1.16 1.12 1.09 1.19 1.33 1.46 1.75 1.99 2.13 2.22 2.24 2.08 1.87 1.74 1.69 1.64 1.71 1.85 1.89
0.97 1.07 1.05 0.98 0.89 0.90 0.95 0.92 0.87 0.81 0.81 0.76 0.74 0.69 0.72 0.92 1.09 0.91 0.88 0.87 0.99 1.10 1.19 1.23 1.18 1.11 1.14 1.13 1.18 1.20 1.26 1.48 1.71 1.93 1.97 1.86 1.93 1.85 1.80 1.69 1.68 1.67 1.63
0.68 0.76 0.79 0.80 0.77 0.79 0.81 0.82 0.86 0.82 0.74 0.70 0.72 0.76 0.76 0.83 0.96 0.80 0.76 0.78 0.98 1.12 1.14 1.10 1.18 1.20 1.24 1.28 1.19 1.24 1.17 1.18 1.30 1.33 1.48 1.74 1.94 2.12 2.11 2.01 2.00 1.90 1.77
0.49 0.53 0.57 0.61 0.65 0.71 0.73 0.76 0.88 0.89 0.82 0.78 0.86 0.90 0.84 0.81 0.92 0.85 0.85 0.88 1.01 1.11 1.09 1.13 1.23 1.28 1.47 1.51 1.36 1.39 1.34 1.30 1.30 1.41 1.51 1.65 1.78 1.90 2.07 2.14 2.11 2.07 1.90
0.45 0.47 0.52 0.53 0.57 0.65 0.74 0.77 0.75 0.73 0.76 0.82 0.83 0.78 0.76 0.84 0.98 0.92 0.96 1.03 1.13 1.24 1.22 1.25 1.52 1.50 1.53 1.47 1.34 1.47 1.43 1.28 1.20 1.24 1.30 1.39 1.45 1.58 1.72 1.77 1.97 2.13 2.02
0.48 0.48 0.50 0.52 0.54 0.58 0.59 0.59 0.63 0.68 0.66 0.66 0.65 0.68 0.72 0.85 0.93 0.98 1.12 1.14 1.18 1.33 1.33 1.32 1.31 1.51 1.46 1.40 1.38 1.35 1.46 1.36 1.26 1.28 1.27 1.26 1.29 1.35 1.41 1.48 1.64 1.85 1.98
0.44 0.44 0.42 0.42 0.42 0.44 0.47 0.46 0.47 0.56 0.63 0.65 0.69 0.72 0.72 0.77 0.83 0.89 1.00 1.09 1.15 1.30 1.38 1.26 1.16 1.44 1.41 1.33 1.23 1.25 1.42 1.46 1.41 1.45 1.44 1.34 1.25 1.21 1.21 1.28 1.39 1.53 1.68
0.42 0.38 0.40 0.39 0.38 0.36 0.38 0.43 0.47 0.49 0.53 0.55 0.61 0.69 0.78 0.78 0.79 0.91 0.93 0.98 1.09 1.24 1.30 1.32 1.29 1.32 1.25 1.18 1.28 1.31 1.34 1.33 1.40 1.46 1.36 1.22 1.15 1.15 1.22 1.34 1.46 1.56 1.64
0.37 0.34 0.37 0.39 0.38 0.36 0.35 0.39 0.41 0.42 0.44 0.48 0.54 0.59 0.64 0.72 0.76 0.90 1.00 1.00 1.08 1.14 1.17 1.22 1.19 1.13 1.13 1.12 1.17 1.27 1.30 1.36 1.40 1.33 1.22 1.09 1.11 1.19 1.23 1.27 1.43 1.59 1.73
0.36 0.34 0.32 0.38 0.39 0.37 0.35 0.37 0.40 0.43 0.51 0.56 0.57 0.59 0.58 0.59 0.68 0.86 1.03 1.11 1.23 1.37 1.39 1.24 1.14 1.09 1.06 1.04 1.07 1.12 1.18 1.20 1.23 1.21 1.17 1.15 1.14 1.18 1.20 1.20 1.31 1.40 1.42
0.35 0.34 0.32 0.31 0.33 0.36 0.38 0.36 0.40 0.44 0.54 0.59 0.60 0.60 0.59 0.64 0.67 0.68 0.78 0.99 1.22 1.53 1.77 1.65 1.56 1.40 1.27 1.15 1.10 1.06 1.03 1.04 1.09 1.13 1.15 1.14 1.17 1.23 1.28 1.28 1.31 1.36 1.35
0.32 0.33 0.31 0.29 0.30 0.32 0.35 0.40 0.42 0.41 0.41 0.43 0.47 0.54 0.59 0.63 0.63 0.68 0.73 0.80 0.98 1.32 1.67 1.66 1.64 1.45 1.28 1.19 1.08 0.98 0.92 0.94 1.03 1.05 1.07 1.11 1.13 1.19 1.24 1.25 1.24 1.29 1.32
0.34 0.33 0.33 0.33 0.33 0.36 0.37 0.41 0.53 0.60 0.54 0.43 0.45 0.49 0.57 0.64 0.69 0.80 0.93 0.98 1.00 1.14 1.26 1.31 1.27 1.21 1.13 0.97 0.90 0.89 0.86 0.90 0.99 1.02 1.03 1.04 1.08 1.14 1.17 1.23 1.25 1.26 1.31
0.36 0.38 0.39 0.42 0.40 0.42 0.46 0.50 0.54 0.49 0.48 0.48 0.46 0.47 0.55 0.62 0.68 0.74 0.83 0.83 0.80 0.85 0.87 0.87 0.85 0.85 0.84 0.79 0.75 0.75 0.78 0.83 0.89 0.96 1.00 0.99 1.00 1.05 1.12 1.19 1.28 1.38 1.37
0.34 0.42 0.46 0.51 0.47 0.43 0.50 0.52 0.48 0.47 0.50 0.52 0.49 0.48 0.53 0.57 0.59 0.64 0.69 0.69 0.64 0.63 0.63 0.64 0.65 0.67 0.70 0.70 0.71 0.73 0.75 0.78 0.84 0.91 0.95 1.01 1.03 1.02 1.05 1.13 1.22 1.30 1.31
0.39 0.41 0.44 0.50 0.51 0.49 0.55 0.54 0.51 0.50 0.51 0.53 0.52 0.55 0.61 0.60 0.59 0.59 0.61 0.60 0.61 0.63 0.62 0.62 0.62 0.64 0.69 0.72 0.75 0.79 0.82 0.85 0.87 0.94 0.96 1.00 1.07 1.11 1.11 1.14 1.18 1.20 1.25
0.40 0.44 0.40 0.44 0.49 0.52 0.56 0.56 0.56 0.53 0.50 0.51 0.53 0.55 0.60 0.59 0.57 0.56 0.56 0.57 0.59 0.62 0.67 0.71 0.72 0.71 0.70 0.74 0.79 0.84 0.85 0.87 0.90 0.95 1.01 1.02 1.05 1.08 1.11 1.15 1.20 1.22 1.22
0.39 0.47 0.44 0.42 0.44 0.51 0.52 0.52 0.57 0.58 0.55 0.55 0.55 0.53 0.55 0.55 0.55 0.58 0.59 0.59 0.63 0.64 0.63 0.66 0.72 0.74 0.71 0.71 0.76 0.84 0.90 0.90 0.92 0.99 1.08 1.08 1.05 1.06 1.10 1.11 1.14 1.20 1.23
0.42 0.50 0.52 0.52 0.51 0.53 0.53 0.52 0.54 0.53 0.54 0.58 0.57 0.55 0.58 0.62 0.61 0.58 0.59 0.65 0.67 0.66 0.64 0.63 0.65 0.69 0.72 0.75 0.78 0.81 0.83 0.89 0.94 1.00 1.07 1.12 1.10 1.07 1.10 1.17 1.18 1.21 1.28
0.44 0.50 0.55 0.60 0.63 0.63 0.62 0.58 0.56 0.53 0.54 0.57 0.55 0.55 0.56 0.60 0.62 0.61 0.61 0.66 0.68 0.67 0.66 0.67 0.67 0.68 0.70 0.73 0.78 0.80 0.91 0.97 0.97 0.99 1.07 1.18 1.19 1.16 1.16 1.24 1.31 1.33 1.38
0.45 0.49 0.53 0.59 0.66 0.69 0.67 0.65 0.63 0.59 0.57 0.56 0.53 0.55 0.59 0.63 0.66 0.67 0.69 0.72 0.73 0.72 0.70 0.71 0.71 0.72 0.72 0.72 0.78 0.89 0.95 0.90 0.91 0.98 1.03 1.16 1.26 1.28 1.28 1.30 1.31 1.36 1.42